Theta_e
311 311 312 312 312 312 312 312 312 312 313 313 313 313 313 313 313 313 313 314 314 315 315 315 316 315 315 315 315 316 315 309 308 308 309 312 321 329 331 330 329 329 324 312 312 311 305 307 307 311 311 308 305 303 307 306 306 303 295 292 290 291 293 297 296 297 299 297 300 302 303 302 299 303 306 307 306 306 311 324 325 329 330 335 338 340 341 343
311 311 311 312 312 312 312 312 312 312 313 313 313 313 313 313 313 313 314 314 314 314 315 315 315 315 315 315 315 316 312 309 307 308 308 318 325 329 330 330 329 326 322 309 308 308 304 304 307 310 309 304 307 302 306 301 307 298 295 293 290 293 297 300 300 300 298 298 301 303 303 303 302 302 304 302 302 303 304 325 326 325 330 336 337 338 339 341
311 311 311 311 311 312 312 312 312 312 312 312 313 313 313 313 313 314 314 314 314 314 314 315 315 315 315 314 314 315 310 307 308 307 311 325 325 328 331 328 328 328 310 307 309 310 308 306 308 310 307 303 302 299 303 300 304 299 296 291 293 298 299 301 302 302 302 302 301 301 302 301 302 302 305 302 300 302 302 321 325 324 325 332 334 337 338 338
311 311 311 311 311 311 312 312 312 312 312 312 312 313 313 313 313 313 313 314 314 314 314 314 315 314 314 315 315 312 309 306 301 305 320 331 327 327 328 328 329 326 310 308 309 310 312 311 310 310 306 302 301 303 298 301 299 298 296 292 295 298 297 301 302 303 303 303 301 301 302 300 302 303 305 302 299 300 308 325 327 327 328 330 334 336 337 329
310 310 311 311 311 311 311 312 311 312 312 312 312 312 313 313 313 313 313 313 314 314 314 314 314 314 314 315 314 311 305 298 301 314 323 331 328 326 328 328 332 318 311 308 308 307 307 308 310 307 305 297 301 299 298 301 304 301 297 299 299 300 298 301 304 304 302 302 302 302 300 300 303 302 303 303 298 296 305 327 331 332 332 332 333 334 328 327
310 310 310 310 311 311 311 311 311 311 311 312 312 312 312 313 313 313 313 313 313 313 313 313 314 314 314 314 311 309 302 289 309 312 329 330 328 329 331 332 331 316 312 308 306 307 309 309 308 303 300 298 297 295 297 300 304 293 297 298 299 300 299 302 303 303 302 301 301 300 301 302 301 301 304 303 300 301 316 331 331 332 334 335 334 328 327 327
310 310 310 310 310 310 311 311 311 311 311 311 312 312 312 312 312 312 313 313 313 313 313 313 314 314 313 313 309 307 302 303 309 319 329 333 333 332 329 329 329 317 311 305 305 305 310 308 306 303 301 299 299 299 301 301 302 298 293 298 300 302 301 302 302 302 299 300 300 302 302 300 299 298 303 301 303 304 315 332 332 334 335 335 329 327 327 326
309 310 310 310 310 310 310 311 311 311 311 311 311 312 312 312 312 312 312 312 312 312 313 313 313 313 313 308 305 301 302 302 310 321 336 332 328 329 325 319 312 312 310 306 306 307 310 307 303 305 300 297 299 300 302 300 300 297 296 300 301 301 301 301 300 301 303 303 301 302 299 299 300 299 302 301 303 304 316 331 331 333 333 331 328 328 328 327
309 309 309 310 310 310 310 310 310 311 311 311 311 311 312 312 311 311 312 312 312 312 312 313 313 313 313 307 303 299 299 310 316 326 332 326 322 323 318 311 309 308 309 310 311 311 311 306 305 306 298 300 303 300 300 298 293 298 298 299 300 300 301 300 300 301 301 305 303 300 298 299 301 302 299 300 302 304 308 329 329 330 331 330 329 329 328 327
309 309 309 309 310 310 310 310 310 310 311 311 311 311 311 311 311 311 311 311 312 312 312 312 313 312 308 304 303 295 306 320 324 329 327 324 322 319 315 310 308 307 310 312 313 312 310 307 306 308 306 303 304 300 301 299 294 302 300 300 299 300 300 301 300 301 302 301 300 299 298 299 301 301 294 301 304 305 305 324 327 330 330 330 330 329 329 327
309 309 309 309 309 310 310 310 310 310 310 310 310 311 311 311 311 311 311 311 311 312 312 312 312 311 305 306 298 295 312 321 323 325 325 323 318 313 311 307 308 308 311 311 310 312 312 310 309 307 305 299 301 298 299 299 302 301 302 300 300 300 301 301 301 301 300 300 301 301 299 300 301 300 294 299 302 305 304 319 328 329 329 329 329 329 328 327
309 309 309 309 309 309 310 310 310 310 310 311 310 310 310 311 311 311 311 311 312 312 312 312 312 308 306 303 298 300 313 312 321 322 321 317 313 311 311 309 308 309 309 307 310 312 312 309 308 304 295 302 294 300 298 302 301 300 299 294 296 298 298 300 300 301 302 299 302 302 298 295 297 296 300 302 303 303 304 323 327 328 329 328 328 327 327 329
308 309 309 309 309 309 309 310 310 310 310 310 310 310 310 310 311 311 311 311 311 312 312 313 312 309 305 298 302 310 312 312 311 318 314 313 312 310 311 310 309 310 310 310 310 311 309 307 306 301 303 300 299 293 300 303 301 301 299 295 295 294 293 298 301 301 300 301 301 301 287 288 294 298 300 302 302 303 302 323 325 326 326 327 327 326 327 331
308 308 308 309 309 309 309 309 310 310 310 310 310 310 310 310 311 311 311 311 312 312 313 313 311 308 304 300 307 313 313 312 311 315 312 313 310 309 311 313 310 310 312 311 311 310 309 307 307 304 305 300 297 304 300 300 302 293 296 297 290 290 290 298 299 299 298 301 301 301 289 288 295 298 300 301 303 302 300 321 323 324 324 324 323 325 328 330
308 308 308 308 308 309 309 309 309 309 309 310 309 309 310 310 310 311 312 311 312 312 314 314 310 305 299 300 310 313 328 323 310 313 315 311 309 308 309 312 311 311 311 311 310 312 312 308 305 302 297 303 302 299 294 295 297 295 292 286 290 288 292 297 301 300 296 299 301 298 291 290 295 298 301 302 303 302 302 320 322 322 322 321 323 326 329 330
308 308 308 308 308 308 308 309 309 309 309 309 309 309 310 310 310 311 312 311 312 313 312 307 306 305 301 296 304 319 313 304 304 312 313 314 310 308 311 311 310 310 311 310 313 311 310 307 301 299 299 300 297 292 291 290 291 294 291 290 288 289 291 294 298 300 300 299 299 297 287 292 294 298 300 302 302 302 301 317 321 321 322 321 326 328 329 330
308 308 307 308 308 308 308 308 308 308 309 309 309 309 309 310 310 311 311 311 310 313 309 305 307 306 295 306 314 304 303 305 308 308 311 313 312 311 310 308 306 307 310 310 310 309 307 304 303 300 301 293 293 294 287 285 285 287 291 287 291 290 290 289 296 300 300 298 294 297 293 293 296 299 300 302 302 301 302 307 320 320 321 323 327 328 329 329
308 307 307 307 307 307 307 308 308 308 308 308 308 308 307 310 311 310 309 310 310 310 309 311 309 302 298 307 300 303 307 305 305 305 309 312 312 311 308 306 307 306 307 305 307 303 303 298 299 291 295 295 293 290 285 282 286 285 287 287 289 292 293 292 291 295 299 298 295 294 294 295 296 298 299 300 303 301 301 302 319 321 322 325 326 326 329 329
307 307 307 307 307 307 307 308 308 308 308 308 308 309 310 313 311 308 306 308 304 300 296 298 299 291 290 301 308 309 307 307 306 305 305 310 311 311 310 309 307 304 300 299 299 302 300 298 300 291 287 288 289 291 288 291 294 292 293 290 291 289 290 290 296 299 299 295 294 294 291 293 296 294 297 299 302 302 302 302 317 322 324 324 323 324 326 326
307 307 307 307 307 307 307 307 307 308 308 305 304 303 306 305 304 303 305 306 302 303 301 303 304 304 304 302 306 310 312 309 301 303 306 311 310 308 306 307 304 304 300 294 298 299 300 289 286 286 288 291 294 294 294 296 296 295 294 293 292 292 294 298 298 300 299 295 293 294 295 294 294 296 297 299 301 301 301 301 305 319 321 321 321 321 322 323
307 306 306 306 307 307 307 307 307 308 307 305 303 299 297 301 294 296 301 302 306 306 304 305 305 304 302 304 306 306 302 302 304 301 303 311 308 304 300 303 299 296 297 300 298 302 299 289 289 292 293 294 295 296 296 295 296 294 292 292 291 293 291 298 297 299 299 297 293 295 295 295 295 297 298 299 299 298 299 300 301 316 319 319 320 318 319 321
307 306 306 306 307 307 307 307 307 307 307 304 301 297 299 300 305 305 301 294 302 306 306 306 307 305 308 307 309 310 308 302 302 301 304 307 303 297 298 299 297 294 298 299 298 294 290 288 292 295 297 297 297 296 297 295 294 295 291 290 290 291 296 298 299 300 299 299 292 295 294 294 296 297 298 299 299 299 300 300 301 315 315 317 318 317 316 318
307 306 306 306 306 307 307 307 307 307 303 300 297 299 300 305 308 307 304 298 296 303 305 306 304 305 306 308 308 311 302 300 298 301 302 305 299 298 298 295 294 296 298 298 292 291 288 291 295 298 297 296 295 296 296 296 295 291 290 288 288 293 292 287 295 298 298 296 294 294 293 293 297 298 298 300 300 300 301 302 301 313 317 316 317 317 317 317
306 306 306 306 307 306 307 306 306 303 301 300 298 298 304 307 305 305 303 294 293 299 301 303 307 307 305 303 306 304 301 301 302 300 306 303 298 300 297 297 294 296 294 297 296 293 292 296 299 298 297 296 294 296 295 292 290 297 298 294 292 293 294 294 292 297 301 300 300 294 293 290 294 294 295 298 300 301 301 301 301 301 310 317 319 318 319 317
305 305 306 306 306 307 306 306 300 300 303 302 300 303 303 303 303 309 299 296 296 295 305 303 305 306 308 311 307 301 302 301 301 305 306 305 301 298 296 300 296 293 295 298 297 295 295 300 301 298 296 296 294 292 294 294 290 291 298 297 295 296 294 295 295 293 289 287 298 294 284 283 289 294 295 296 297 297 299 300 300 301 301 302 316 317 318 319
305 305 305 306 306 305 306 298 303 302 300 300 305 309 308 306 308 307 301 293 289 298 301 293 305 299 311 301 303 302 302 296 303 304 307 307 308 301 299 295 298 291 296 296 295 294 295 299 300 297 296 295 294 292 295 295 289 289 291 298 296 295 295 294 293 291 284 283 292 299 285 279 289 292 293 295 296 297 298 298 299 300 303 307 307 314 318 318
305 305 305 305 305 305 298 298 302 301 298 301 307 310 306 309 312 309 297 287 281 295 293 297 300 298 304 302 301 302 286 291 303 303 306 309 303 306 295 293 297 299 300 300 294 290 299 298 297 297 296 295 293 290 298 296 290 287 297 297 296 295 293 293 293 291 287 295 296 297 292 284 281 288 294 296 295 296 304 306 306 309 311 312 313 311 316 317
304 305 305 305 305 304 299 300 299 297 299 304 306 305 305 312 312 308 294 280 279 300 292 294 299 308 303 302 304 297 296 301 293 298 306 308 306 301 298 295 294 295 297 295 284 295 299 296 296 295 295 292 290 294 299 297 292 291 296 298 296 294 294 294 292 289 290 291 283 288 293 284 283 287 294 296 293 299 303 305 306 308 310 312 313 315 313 318
304 304 304 305 305 305 304 300 299 298 304 306 306 306 309 310 307 297 288 280 296 295 308 295 307 303 301 303 300 299 298 301 293 297 303 307 307 303 294 297 298 296 298 296 289 295 299 299 298 298 293 290 296 297 297 297 292 295 297 298 297 296 295 295 290 290 289 286 280 287 293 283 281 288 289 295 300 300 302 304 306 309 310 312 314 317 319 319
304 304 304 305 303 302 303 303 298 303 305 307 307 306 308 306 300 287 281 276 301 288 298 298 297 295 300 296 296 298 296 298 300 298 301 301 302 303 302 305 299 297 295 297 295 296 297 305 303 299 295 297 297 298 298 298 298 298 297 295 294 293 291 292 290 289 285 279 281 292 294 289 279 286 292 295 298 301 302 303 306 310 313 314 315 317 319 321
304 304 304 305 298 300 300 297 302 307 307 308 309 308 306 300 291 283 277 287 298 295 299 295 295 300 296 294 290 297 296 297 298 296 293 301 298 300 300 296 300 294 293 294 292 295 297 298 298 300 305 301 300 297 300 299 298 297 294 291 290 288 289 287 288 288 280 276 284 289 290 295 280 285 295 300 305 307 305 305 307 310 313 313 314 316 319 321
304 304 304 302 302 303 296 297 306 305 306 306 307 304 298 285 289 282 282 298 285 291 293 292 297 296 296 298 295 294 293 296 298 294 290 292 291 291 291 287 293 285 284 287 286 293 291 292 298 300 304 300 297 294 293 297 296 294 291 289 283 280 280 278 282 278 278 277 284 290 291 287 285 292 297 303 305 307 309 309 309 312 314 314 315 315 318 319
304 304 305 303 304 300 301 303 304 304 304 305 306 301 291 283 277 284 286 293 286 295 293 299 295 296 296 295 293 296 298 292 298 295 294 294 292 293 296 294 295 291 283 289 288 287 287 295 296 297 299 301 297 289 288 289 291 290 288 286 282 278 277 273 276 279 279 286 290 289 295 285 293 296 300 301 304 307 309 310 313 314 314 315 316 317 317 317
304 304 301 303 303 303 303 305 305 305 303 306 301 296 290 281 282 293 289 291 291 297 297 296 297 296 295 290 293 296 291 296 296 293 294 291 291 288 291 295 296 293 292 290 285 286 281 283 290 295 291 299 297 294 293 291 290 291 293 290 284 283 281 273 277 274 277 279 289 295 288 282 284 290 303 306 307 308 310 313 313 313 313 313 315 316 317 317
304 303 302 302 302 303 304 305 305 306 304 302 296 290 282 283 289 289 288 291 294 296 294 299 295 294 292 293 296 297 296 291 297 294 292 290 286 288 289 290 295 295 294 285 290 288 289 286 293 298 297 299 296 299 299 296 293 292 294 294 287 282 287 280 279 281 283 279 280 284 284 292 291 299 306 308 309 308 310 311 310 309 311 312 311 312 313 315
303 301 304 301 302 304 304 305 305 305 302 299 292 284 283 289 286 293 289 296 295 294 295 294 292 288 288 289 294 294 299 294 295 294 291 291 291 289 293 293 293 294 290 284 289 284 289 286 296 297 299 298 298 299 298 298 282 290 292 285 290 294 291 283 282 287 281 281 279 284 288 295 299 299 303 306 306 307 308 308 308 308 309 309 310 311 312 313
298 301 300 305 305 309 307 306 306 304 302 298 290 283 291 293 297 295 296 293 293 294 292 284 287 287 288 286 289 292 295 297 295 293 286 294 289 293 293 294 297 295 295 292 290 293 285 285 296 296 295 299 301 300 298 298 297 292 287 290 297 298 295 287 279 280 280 276 278 285 281 287 289 284 299 302 303 304 305 306 307 308 309 309 309 310 312 313
298 298 301 304 308 313 310 308 306 304 301 296 287 292 298 293 300 296 295 295 294 294 288 286 288 291 287 287 286 291 294 291 291 292 291 292 289 297 294 293 297 296 296 297 288 292 293 284 290 296 297 300 302 299 296 298 299 292 291 299 289 283 281 286 281 276 276 276 278 282 288 288 290 285 295 298 301 302 303 304 305 307 308 309 310 312 314 315
298 298 297 308 313 315 310 309 306 302 296 290 286 287 296 296 299 296 295 295 295 292 286 289 287 291 289 287 292 293 293 287 292 292 287 293 286 299 298 299 297 297 297 297 291 294 296 282 286 296 295 297 299 295 286 290 297 298 298 293 297 292 288 284 281 282 281 277 276 279 286 279 292 293 298 298 302 303 303 303 304 307 308 308 309 310 312 313
296 298 299 310 314 314 311 308 303 298 292 284 288 291 297 294 297 296 296 295 292 289 290 288 292 286 291 291 292 291 294 294 291 293 291 296 292 301 299 303 300 301 303 303 297 297 287 290 280 289 298 297 289 294 290 291 289 290 290 288 291 292 295 291 292 285 281 277 278 278 278 283 294 301 300 300 301 302 303 304 306 307 308 309 309 309 310 310
300 298 301 313 311 313 310 304 297 292 289 292 294 293 294 293 295 295 297 298 294 297 292 291 291 288 291 290 291 295 293 292 293 290 293 295 294 288 302 301 302 299 302 301 297 298 286 287 283 289 290 289 292 297 297 297 295 294 291 288 288 287 284 281 280 291 289 284 278 278 278 289 298 305 303 303 304 305 306 307 306 307 307 308 308 309 309 308
298 293 300 313 311 310 303 294 293 296 292 288 289 293 293 300 295 296 298 296 296 291 296 295 293 292 292 291 292 293 292 290 293 295 296 293 299 297 300 304 302 303 298 292 295 302 297 294 287 284 288 290 295 299 301 300 302 301 299 295 297 293 291 284 279 282 287 289 290 285 283 286 301 304 304 305 304 305 307 308 306 306 307 307 308 309 308 307
298 297 312 313 311 307 299 291 293 290 290 293 297 296 298 295 294 295 294 295 292 294 294 296 294 292 295 293 293 292 293 290 294 293 296 297 298 299 302 304 305 303 301 296 300 300 308 287 286 289 293 295 298 300 301 302 301 298 299 299 298 293 294 289 288 290 283 286 282 282 282 287 300 305 305 305 304 304 305 305 305 305 306 306 307 306 305 305
301 301 304 311 311 305 295 284 284 285 291 295 296 296 298 295 294 293 293 294 294 293 293 295 294 295 294 295 293 291 294 283 295 295 293 298 295 303 304 303 305 300 301 299 295 302 288 290 287 282 282 283 287 292 293 298 298 295 294 296 298 298 299 298 294 290 282 287 286 282 279 283 299 305 306 305 303 301 301 303 303 302 305 305 304 303 303 303
301 305 304 306 309 306 294 296 294 287 293 294 295 295 297 297 296 295 296 295 296 295 293 294 295 295 293 294 294 294 295 292 290 297 298 298 298 303 304 305 306 301 305 307 310 307 292 290 287 281 279 276 276 278 281 283 289 293 298 297 297 297 295 289 282 283 281 286 289 283 284 292 300 302 300 300 300 299 299 299 300 300 301 303 301 302 301 301
298 287 298 301 304 304 302 303 299 296 292 293 288 294 297 294 295 296 296 295 297 296 294 298 296 296 293 293 292 292 291 295 291 294 295 294 298 301 304 304 305 304 306 309 309 303 293 296 293 288 283 281 283 288 293 294 293 289 294 296 296 297 297 294 287 282 281 284 283 288 291 292 295 298 297 297 297 295 295 296 296 297 298 300 300 300 300 299
302 292 290 288 299 300 298 298 298 298 291 296 284 295 292 294 296 297 297 292 296 295 295 295 294 293 292 291 291 290 293 292 295 293 295 295 298 298 302 304 304 306 309 307 309 300 294 288 293 294 293 291 294 295 297 296 293 294 293 293 296 295 295 293 285 285 292 285 282 288 295 292 292 294 295 295 295 295 295 295 295 296 297 298 298 298 299 298
291 294 300 303 293 286 289 289 297 296 299 297 292 296 294 294 294 287 294 295 296 296 291 293 294 294 293 291 293 286 291 291 293 289 296 297 296 298 296 301 302 306 307 303 306 301 294 285 293 295 292 297 297 296 297 295 294 294 295 294 293 294 294 291 292 294 290 282 283 290 294 291 292 293 294 294 294 293 293 294 295 296 296 297 297 296 295 296
301 299 300 303 292 297 295 296 299 297 295 295 291 295 293 295 294 294 294 293 294 294 295 282 289 292 293 294 292 288 291 284 283 294 293 293 296 293 292 297 299 301 303 301 304 301 295 287 293 294 292 294 295 296 296 292 291 292 292 294 294 293 292 293 293 295 294 292 293 292 291 290 292 292 292 293 294 294 294 295 295 294 294 295 295 294 294 294
298 296 294 301 301 297 299 298 298 296 292 295 285 293 296 294 293 293 295 294 286 294 296 292 293 293 294 293 293 290 293 294 293 286 294 294 293 294 291 291 292 297 300 298 301 302 295 287 296 296 289 291 294 295 293 292 290 288 290 292 292 292 291 291 292 292 294 293 293 292 290 288 292 293 293 294 294 294 293 293 293 294 294 294 293 293 293 293
306 307 306 297 293 294 298 297 295 293 287 290 287 293 295 293 293 295 294 297 295 293 295 292 293 293 294 294 294 294 297 297 298 297 298 295 285 297 289 293 298 290 297 294 297 298 297 287 296 294 284 285 293 291 290 289 288 287 287 288 290 289 286 288 287 291 290 287 291 290 287 286 291 292 292 292 292 291 291 292 292 293 294 294 293 293 293 293
309 309 307 302 291 296 292 295 295 292 284 290 294 294 295 293 295 295 285 293 296 296 298 295 296 292 292 293 291 294 296 296 295 296 295 297 297 296 296 299 298 295 295 296 298 291 293 289 286 286 282 283 291 292 290 290 287 284 283 287 291 290 289 289 290 291 290 291 287 284 285 290 292 292 289 289 290 290 291 291 292 293 293 293 293 293 294 294
Wind_Speed
11 11 11 11 11 11 11 12 12 12 12 12 12 12 12 12 12 12 13 14 15 15 16 16 16 17 17 18 18 18 17 9 12 8 7 16 9 8 4 6 14 13 9 4 3 3 5 5 7 8 8 5 3 5 6 7 5 3 4 3 8 7 6 7 5 1 1 2 2 3 2 3 4 6 2 3 1 4 3 7 7 9 6 9 10 13 14 12
11 11 12 12 12 12 12 12 13 13 12 13 13 13 13 12 12 13 14 14 14 16 16 16 17 17 17 17 19 18 14 10 11 12 18 11 12 10 8 12 13 12 7 3 6 7 6 7 8 8 7 5 3 5 4 2 5 4 2 4 9 4 8 5 4 2 2 2 3 2 5 2 2 4 2 4 6 2 2 6 8 9 8 10 13 13 13 12
11 11 12 12 12 12 12 13 13 13 14 14 13 13 13 13 13 13 14 14 15 16 16 17 17 17 17 17 18 17 12 8 8 12 17 19 22 12 11 12 12 12 9 5 8 8 9 10 10 9 7 6 5 7 7 4 6 5 3 6 8 8 10 10 6 2 8 5 7 7 5 3 4 3 4 3 7 9 3 7 6 7 6 9 10 11 12 11
11 12 12 12 12 12 12 13 13 13 13 14 14 13 13 13 13 13 14 15 16 16 16 18 18 18 18 18 18 13 9 8 6 6 2 7 19 16 12 12 12 12 6 5 6 9 8 10 9 10 5 8 5 9 6 4 5 3 5 6 5 3 4 8 5 5 5 7 4 4 6 6 4 2 0 5 7 8 4 11 13 11 10 10 9 12 13 17
11 12 12 12 12 13 13 13 13 14 14 14 14 14 14 13 13 13 13 14 15 16 16 18 18 18 19 18 17 9 8 4 2 3 2 6 16 14 12 12 11 8 7 3 3 9 10 11 10 8 6 4 8 5 7 7 9 1 9 12 10 9 11 10 1 3 5 6 2 1 2 4 4 3 2 2 6 8 1 8 12 13 10 12 12 15 15 13
12 12 13 13 13 13 13 13 13 14 14 15 15 15 14 13 13 13 13 14 15 16 17 17 18 18 19 19 12 7 2 2 2 1 5 5 12 13 11 9 10 5 4 3 4 4 7 9 9 5 4 4 4 5 4 7 6 6 6 5 6 7 7 5 5 3 2 3 1 2 2 4 5 2 2 2 3 4 6 12 12 13 12 10 15 15 13 13
13 13 13 13 13 14 14 14 14 14 14 15 15 15 14 13 13 13 14 14 15 15 16 17 17 18 17 17 7 2 2 9 7 3 8 5 7 10 11 9 6 3 4 4 7 6 6 9 8 5 3 4 7 9 10 8 7 5 5 4 8 8 11 9 9 4 4 6 2 1 4 3 3 3 3 3 5 7 5 10 12 12 11 15 15 13 14 12
13 13 14 14 14 14 14 14 14 14 15 15 15 16 15 14 13 13 13 14 14 15 15 16 16 16 16 11 5 3 3 9 14 5 8 8 6 9 10 6 7 5 6 8 7 10 9 8 8 5 5 6 4 8 6 9 7 8 9 8 10 9 7 6 5 5 1 1 3 4 4 6 4 4 1 6 7 7 5 10 8 10 14 11 13 13 11 9
13 14 14 14 14 14 15 15 14 14 15 15 16 16 15 14 14 13 14 14 14 14 15 15 15 14 12 5 3 6 7 10 10 7 9 8 7 7 9 7 7 7 5 6 8 10 8 5 8 7 5 9 10 12 5 5 6 5 6 4 4 5 5 4 4 6 4 0 0 1 3 4 7 5 5 5 8 6 3 9 12 13 14 13 11 10 10 8
13 13 14 14 14 15 15 15 15 15 15 16 16 16 16 15 14 13 14 14 14 15 15 15 14 13 9 4 4 3 9 5 8 10 10 9 8 8 8 6 10 7 6 8 8 10 10 5 9 6 9 10 9 7 7 7 5 7 7 7 8 9 7 6 7 3 4 4 4 6 5 5 6 5 5 5 9 9 6 11 11 11 12 12 11 9 9 10
13 13 13 14 14 15 15 16 16 16 15 16 16 17 17 16 14 14 14 15 14 15 15 15 12 9 6 4 3 7 5 4 5 9 12 10 10 8 9 8 10 8 7 6 10 10 11 13 7 4 5 3 2 5 5 5 6 7 2 4 7 5 4 4 5 6 2 2 3 2 6 6 7 2 5 6 8 7 11 11 11 10 12 11 11 10 6 7
13 14 14 14 14 15 15 16 16 16 16 16 17 18 18 17 15 14 14 14 14 14 14 11 9 4 6 5 6 11 8 2 10 10 10 11 7 9 8 9 11 8 9 9 11 11 12 9 8 4 4 3 3 4 5 8 6 6 5 5 5 4 5 5 7 6 3 3 3 2 3 3 3 7 10 9 6 7 1 15 12 12 11 10 9 8 6 6
13 13 14 14 15 15 16 17 17 17 17 16 17 18 18 18 17 16 15 15 12 13 13 10 6 3 3 4 11 18 17 11 8 7 8 8 5 6 7 8 12 10 11 11 10 8 6 4 2 4 4 4 2 3 5 10 5 4 4 2 6 5 6 8 5 7 6 3 4 5 5 8 8 8 8 8 8 9 3 13 13 11 10 9 10 7 7 7
13 13 13 14 14 15 16 17 18 17 18 18 18 19 19 18 17 16 16 15 15 14 11 8 4 4 3 7 7 6 12 13 13 8 10 9 8 8 10 8 12 12 11 12 12 3 4 6 1 3 4 4 3 9 11 4 4 3 2 2 4 3 9 8 6 7 10 7 12 7 5 8 7 7 7 6 8 10 4 12 13 11 9 9 6 7 9 10
13 13 13 13 15 15 16 17 18 18 19 18 19 20 20 19 18 17 16 14 12 10 8 4 4 3 2 9 9 19 23 12 10 8 6 10 9 7 9 8 9 11 10 7 3 3 1 5 5 1 3 3 4 6 5 4 2 3 1 5 2 6 11 10 8 9 12 5 8 8 2 8 10 10 11 9 10 11 6 14 14 11 11 7 6 5 6 7
13 13 13 14 14 15 16 17 18 19 19 19 19 21 21 20 17 16 15 13 12 10 6 4 6 6 4 9 6 7 2 3 3 7 6 7 9 8 9 8 4 6 2 2 2 3 2 3 1 2 4 4 6 4 5 4 4 2 5 3 5 5 12 8 9 10 17 6 8 11 4 4 11 6 7 8 10 14 8 14 12 12 11 8 5 5 5 7
14 13 13 14 14 15 16 17 18 19 19 19 21 21 21 21 18 15 13 11 7 4 5 3 5 6 1 3 7 4 7 7 3 4 5 7 9 7 7 4 4 4 2 3 3 2 2 1 1 2 2 3 2 3 4 5 5 5 4 8 6 7 5 6 8 12 16 5 4 5 2 7 10 12 8 13 11 13 7 13 13 12 10 9 6 6 7 7
14 14 13 14 14 15 16 17 18 19 20 19 19 20 18 19 13 10 8 5 4 5 6 7 4 3 10 7 5 9 8 5 7 6 6 8 9 6 7 4 3 4 4 3 3 3 2 2 3 3 1 4 3 4 5 6 7 6 4 4 6 8 11 8 4 1 11 4 9 6 7 9 10 9 11 6 9 9 7 7 15 13 12 11 9 8 9 8
14 14 14 14 15 15 16 17 18 19 18 18 19 21 21 11 4 4 2 3 3 2 1 4 5 6 1 8 16 7 7 9 8 7 8 8 7 4 6 3 4 6 4 3 2 5 2 2 3 3 5 4 7 7 6 8 8 10 7 7 7 6 6 5 7 8 10 6 7 9 6 8 11 5 6 4 3 10 7 6 15 13 15 11 10 9 8 7
14 14 14 15 15 16 16 17 18 19 18 12 10 9 1 2 1 2 2 5 8 8 5 5 12 6 11 12 7 11 7 12 8 8 6 7 6 6 6 7 5 5 4 5 4 8 3 5 5 7 8 7 7 8 9 11 10 11 11 5 3 4 7 8 1 14 8 6 3 5 6 2 5 7 5 4 1 3 1 7 8 11 12 10 10 10 9 10
15 14 15 15 16 16 16 16 16 15 15 9 10 6 2 2 4 2 5 9 14 15 17 11 14 14 11 9 4 8 11 8 5 8 8 7 4 3 4 7 5 6 6 7 6 3 5 5 8 8 9 10 9 8 9 12 11 9 7 6 7 5 7 9 4 5 6 4 2 2 1 2 4 7 9 5 5 3 6 4 3 11 13 11 13 12 11 9
14 15 15 15 16 16 17 17 16 16 11 6 5 5 6 8 5 5 2 6 11 18 17 17 12 14 16 16 16 3 5 7 9 12 6 11 5 6 3 6 7 9 6 6 5 4 5 8 9 11 10 10 11 8 9 12 10 7 4 5 4 7 5 9 1 6 3 2 4 3 1 2 5 5 8 10 7 5 3 6 7 14 10 11 12 12 10 8
14 15 15 16 16 17 18 19 16 16 9 4 5 9 7 9 10 6 4 6 11 10 15 16 14 15 18 14 11 11 8 8 8 10 9 10 7 10 6 8 6 7 8 9 7 5 4 8 16 12 9 9 9 11 8 10 9 5 3 4 8 5 3 5 4 1 4 3 3 4 3 5 4 5 6 6 6 5 5 8 5 15 15 15 15 14 14 11
14 15 16 16 17 17 19 18 19 13 7 10 10 13 9 8 10 8 3 3 6 9 12 15 15 13 16 12 4 5 5 5 7 12 8 10 8 9 5 11 8 7 8 11 12 8 11 11 9 10 11 10 9 8 8 3 1 0 1 1 4 4 5 6 5 6 1 2 3 4 1 2 2 4 6 8 6 5 7 4 6 3 12 13 15 13 14 16
15 15 16 16 16 19 18 20 8 6 6 7 11 16 14 13 12 3 2 3 4 7 7 10 9 10 12 10 3 7 6 3 4 4 11 12 8 7 7 5 5 8 9 10 12 11 13 12 9 14 13 13 10 9 6 5 0 1 1 3 3 8 11 11 11 7 7 6 2 3 2 2 3 5 10 7 4 6 4 8 7 9 2 5 14 14 12 13
14 15 15 16 17 17 19 8 2 8 9 8 8 9 10 11 3 6 2 1 5 4 6 6 8 9 8 11 5 6 8 8 8 4 11 11 8 8 4 6 5 7 13 10 9 5 8 5 8 11 15 14 14 9 3 5 1 1 2 2 5 8 8 9 13 6 2 3 4 2 4 3 2 2 4 6 5 10 7 7 12 4 7 9 7 3 5 10
15 15 15 15 15 15 7 3 9 12 7 2 3 3 3 4 4 3 0 2 2 4 7 2 11 1 4 9 8 7 4 7 6 6 10 11 12 7 5 7 5 5 6 4 3 5 6 8 7 5 10 3 2 2 0 6 5 3 1 6 4 8 9 10 10 7 6 2 4 2 1 1 3 7 6 7 3 2 7 15 10 10 9 12 8 6 4 4
15 15 15 15 14 10 6 9 11 8 9 7 11 9 3 5 3 1 1 0 3 6 6 3 3 1 2 11 8 7 7 3 9 9 8 11 7 7 7 6 7 9 7 4 6 4 9 8 7 5 4 4 5 4 2 3 2 3 6 10 12 4 4 8 8 4 3 0 5 3 4 3 0 4 7 9 4 7 8 8 9 11 12 11 10 8 5 6
15 15 15 14 15 18 11 7 6 8 6 8 12 11 6 3 3 2 1 2 2 2 2 6 4 4 2 10 9 6 12 4 6 7 6 11 11 1 8 11 8 5 10 8 6 4 4 9 9 11 3 4 3 2 4 4 5 5 6 6 4 5 4 1 3 3 4 3 4 3 1 3 4 4 6 4 7 6 4 6 8 12 10 9 8 9 11 12
15 14 15 14 13 7 2 4 9 12 9 12 11 13 6 3 1 1 3 3 2 3 5 2 2 8 7 10 7 10 12 5 4 7 7 8 9 4 3 2 8 9 7 7 10 9 6 3 6 4 6 5 5 4 3 5 8 3 10 9 7 4 5 1 3 2 4 1 3 2 1 3 4 3 6 4 2 1 2 3 5 7 10 10 7 8 8 8
15 15 14 13 6 5 7 6 10 7 9 10 9 6 2 1 1 1 2 4 3 3 4 2 5 9 10 11 7 9 10 9 2 9 6 7 5 5 1 5 3 4 3 2 6 12 8 6 3 1 2 3 7 4 6 6 5 9 1 2 1 5 2 3 2 3 1 4 3 3 5 1 4 2 5 2 4 5 5 6 7 9 10 9 8 8 9 9
15 16 16 10 9 7 5 6 2 9 9 12 10 2 1 2 1 2 4 2 3 4 7 5 8 9 12 10 7 8 8 9 3 11 8 7 5 6 4 5 3 2 5 1 6 7 7 4 1 3 3 9 3 1 4 3 3 1 2 2 3 2 2 2 1 2 3 4 3 5 7 8 1 1 1 4 5 6 8 8 9 11 11 10 10 9 7 8
13 15 20 14 11 9 14 15 12 11 12 12 5 1 1 1 2 5 5 3 2 9 6 11 11 11 11 11 9 12 11 8 5 8 7 9 4 8 7 8 3 5 1 3 3 3 5 4 4 4 3 3 5 5 1 5 1 3 4 2 4 2 0 2 2 3 3 4 3 4 2 1 2 2 4 4 5 6 6 9 12 14 13 14 14 12 10 10
14 17 11 8 9 11 9 8 8 9 9 9 1 1 1 1 3 5 9 8 4 6 4 10 14 11 13 9 8 10 9 9 10 4 7 6 7 5 6 11 10 4 4 1 4 4 1 3 6 2 3 5 3 5 6 4 4 8 4 5 7 4 2 3 3 4 8 6 1 0 0 2 3 1 3 3 4 7 9 13 12 12 12 10 12 13 12 9
18 18 13 11 10 13 14 13 9 9 6 5 1 2 3 5 2 2 5 5 8 8 9 13 15 11 13 12 12 15 9 5 11 9 9 6 7 3 6 7 12 7 3 1 2 0 5 5 5 8 5 10 7 8 7 6 5 3 5 5 2 6 4 5 3 1 0 2 3 2 1 1 4 3 1 4 7 10 12 14 13 13 12 12 13 12 9 8
15 7 6 5 5 7 12 10 9 7 5 3 2 2 6 3 2 2 3 6 8 7 4 7 5 2 1 2 2 5 16 3 14 7 6 7 7 7 4 4 8 11 4 6 2 2 2 3 5 9 9 11 10 9 7 4 3 4 7 8 10 6 3 1 3 3 5 4 3 2 3 3 1 2 6 8 13 15 14 13 12 11 11 12 11 9 10 9
7 9 5 5 10 7 9 10 8 7 5 4 1 4 3 4 9 11 4 6 8 9 3 5 0 0 2 3 3 7 8 4 11 7 4 7 4 7 7 7 10 10 11 5 2 2 2 4 1 2 4 8 11 11 8 10 7 1 3 6 8 8 3 3 4 1 1 3 2 5 5 3 0 0 6 10 11 11 11 11 9 11 13 13 9 9 9 11
8 7 8 10 12 7 10 11 10 7 4 3 3 5 4 6 10 8 5 7 10 7 3 2 1 7 3 4 6 5 10 2 7 6 1 11 1 6 6 5 13 9 13 11 3 2 3 1 1 4 7 4 11 6 4 5 7 7 9 0 3 0 5 2 1 1 1 0 1 2 5 3 1 1 3 8 9 8 8 9 12 13 13 12 12 12 10 11
7 4 5 7 7 11 12 12 8 5 3 3 2 2 5 8 10 5 4 4 3 5 3 2 1 2 3 2 2 8 9 3 4 1 3 1 1 4 3 6 2 8 3 11 8 3 3 2 4 2 5 2 2 4 2 5 5 6 3 6 2 3 2 1 3 2 5 2 1 1 6 0 0 1 3 5 7 7 7 8 9 10 11 10 9 9 9 10
5 2 3 3 4 13 12 10 5 3 2 4 4 5 5 8 7 5 7 7 3 3 2 4 8 5 6 3 6 2 7 9 3 1 2 1 3 2 9 10 6 9 7 11 3 4 3 4 3 4 4 1 5 3 4 2 1 3 3 3 1 1 3 3 2 2 2 2 4 3 1 2 2 5 5 5 4 3 4 7 9 10 10 10 8 8 8 11
4 2 4 5 8 12 10 6 3 6 4 4 6 9 11 8 4 5 6 3 2 2 0 3 3 0 3 5 9 7 3 3 2 2 2 4 5 0 8 10 6 6 5 9 10 7 3 1 8 1 3 2 1 6 2 1 2 6 1 2 3 2 2 5 6 1 2 2 2 3 3 1 4 3 6 7 6 4 4 8 9 11 11 10 9 10 10 11
3 2 3 3 9 11 8 6 3 3 3 5 4 4 5 2 3 8 2 2 2 2 2 1 3 3 3 5 6 7 4 5 1 5 3 4 3 4 6 11 9 9 6 3 2 3 1 0 4 1 1 2 5 2 3 5 13 14 11 6 4 4 3 3 1 4 1 3 4 4 7 0 1 1 2 3 3 5 6 8 9 8 8 8 7 8 11 15
3 2 6 9 5 10 5 2 4 4 5 6 10 14 3 4 3 4 3 2 2 1 1 0 2 3 2 0 4 6 7 3 6 4 2 2 4 6 6 11 10 10 3 4 5 7 6 2 2 2 3 5 7 8 10 14 9 11 11 8 8 5 1 3 2 2 2 2 4 1 4 1 1 2 4 3 3 5 8 9 9 8 7 7 9 10 13 15
2 1 4 5 5 7 3 3 3 6 5 8 10 7 5 6 3 1 2 2 1 1 1 1 3 1 1 7 4 3 6 3 5 8 4 4 3 7 8 10 9 5 6 2 2 5 2 3 3 2 1 5 8 7 7 8 10 6 4 5 6 3 3 0 2 4 4 3 4 6 3 1 2 1 3 6 9 11 10 10 11 11 9 10 12 12 14 15
2 0 1 5 4 3 4 2 2 1 2 4 3 3 2 1 2 5 1 7 1 2 3 3 3 3 2 3 3 2 3 2 3 6 8 4 2 3 8 9 6 4 5 4 1 1 5 0 3 2 1 2 1 1 3 5 6 3 6 9 10 10 7 4 2 2 4 5 7 5 3 3 6 7 11 10 10 11 12 12 12 12 12 12 12 13 14 13
0 0 0 2 2 2 4 4 3 3 3 4 2 2 1 3 2 4 6 7 7 5 3 2 2 1 3 6 4 3 3 2 1 2 2 2 1 2 6 6 6 2 3 7 6 3 2 3 4 4 4 5 3 3 1 2 1 5 6 11 9 9 8 5 5 5 3 1 7 2 7 8 6 8 9 9 9 11 12 13 13 12 13 12 12 12 12 12
2 1 2 1 1 3 4 3 4 2 3 3 1 1 2 3 3 0 6 2 4 3 3 2 2 0 1 3 2 5 6 7 13 2 5 6 3 2 4 4 6 7 7 5 8 3 4 6 5 3 4 5 6 4 2 7 7 7 7 5 10 10 5 10 5 3 0 4 5 1 9 9 7 9 9 9 10 10 10 11 11 11 11 12 12 12 13 12
1 3 2 2 1 3 1 5 6 6 9 10 2 0 2 2 2 1 4 3 4 1 1 2 2 2 3 7 4 1 3 4 11 5 8 6 4 7 4 7 2 4 9 7 9 4 3 3 4 6 2 3 4 5 10 10 11 10 11 10 10 9 12 10 7 3 2 1 7 3 7 10 9 10 9 10 10 10 10 10 10 9 10 12 12 13 12 12
1 2 2 3 1 1 8 10 6 9 8 6 1 0 4 2 2 3 1 1 2 1 0 1 6 6 8 9 3 2 2 1 3 3 3 3 2 2 3 4 8 10 10 6 2 1 3 1 2 6 4 2 5 4 10 14 11 15 12 11 11 11 10 11 11 10 11 11 11 12 13 13 10 9 10 10 10 10 9 8 9 12 12 11 11 12 12 12
1 3 3 3 1 5 9 8 4 4 1 3 1 1 1 2 1 4 1 1 0 1 1 1 4 4 5 4 7 3 4 5 5 3 2 2 1 2 1 1 0 4 4 4 5 1 1 2 3 5 2 6 11 13 13 13 14 13 12 12 10 8 11 11 11 11 8 9 9 11 12 11 8 8 9 9 9 8 10 13 12 10 11 12 12 12 12 12
2 0 0 3 5 5 8 5 2 1 2 0 1 3 2 6 3 4 7 2 2 1 3 6 11 10 10 9 12 6 3 8 5 2 1 1 5 1 2 1 4 1 0 2 1 2 2 2 2 1 4 4 7 12 11 12 16 15 12 12 10 8 8 8 9 6 5 4 5 10 8 6 6 8 9 10 10 12 12 11 9 9 10 10 11 12 12 12
2 3 2 1 3 8 4 4 2 2 2 2 3 0 1 4 3 6 2 4 2 4 1 7 3 7 5 8 8 4 5 8 7 5 3 5 1 1 1 5 8 4 3 3 1 2 1 4 1 3 3 2 6 11 10 7 4 6 8 9 6 9 10 8 10 12 11 4 5 5 4 4 6 6 10 10 11 12 11 10 8 8 8 9 10 10 10 11
Wind_Direction
325 327 327 327 328 327 327 327 325 326 326 325 325 326 327 330 329 328 325 325 324 325 325 326 326 327 328 329 328 327 326 317 305 294 247 238 229 202 141 140 156 162 167 163 224 248 186 210 229 241 250 235 232 246 250 269 250 202 215 206 250 238 253 244 267 133 185 64 42 75 310 4 57 339 6 5 355 241 91 97 116 88 88 112 126 128 130 128
325 326 326 326 326 327 326 326 326 325 326 325 325 325 327 328 329 326 327 325 325 325 325 325 326 328 328 329 329 328 327 301 288 272 242 239 217 180 143 141 145 159 167 173 205 215 199 205 223 223 227 232 196 230 194 240 230 204 219 192 238 223 255 285 296 81 64 49 114 356 72 21 26 343 41 323 327 310 115 55 68 80 71 94 110 121 119 127
323 324 323 324 325 325 327 326 325 325 325 324 325 326 326 326 328 327 326 326 325 325 324 325 326 328 330 329 328 330 326 302 277 256 262 228 221 197 162 151 159 165 170 183 211 214 212 206 203 212 213 239 214 234 201 232 209 212 213 234 247 236 252 274 295 79 72 25 27 12 9 27 338 13 317 30 326 331 66 121 81 85 107 110 120 114 109 99
323 322 323 322 324 325 325 325 324 325 323 323 324 324 323 325 326 327 326 325 325 324 325 326 326 329 329 328 328 326 310 280 274 244 319 270 187 168 161 161 162 177 196 219 226 225 236 239 224 199 211 216 241 230 215 214 211 178 213 237 253 283 306 285 336 50 69 59 35 359 350 334 307 308 63 12 351 313 57 147 137 136 135 134 126 106 89 70
322 321 320 321 322 323 324 324 325 324 324 322 323 322 321 323 325 325 324 323 325 323 324 325 326 327 328 327 324 323 308 7 279 31 4 111 137 151 158 166 166 173 193 210 267 283 286 278 248 203 213 228 235 240 233 209 198 146 215 227 236 257 272 275 14 79 90 100 93 293 252 288 284 329 74 155 261 270 200 139 143 150 141 138 119 94 90 98
321 319 319 320 322 323 321 322 324 323 322 322 320 319 320 321 323 323 323 324 323 323 323 323 325 328 327 324 312 298 319 148 13 109 134 130 140 150 150 150 161 174 184 218 239 266 267 262 250 226 203 232 254 240 236 233 174 219 260 252 240 239 261 292 296 92 96 90 84 10 283 333 324 343 295 34 255 249 136 158 158 150 149 119 102 109 105 113
319 320 319 320 320 322 320 319 321 322 321 320 318 317 317 320 321 323 322 322 320 320 322 321 324 329 331 321 278 203 252 279 316 179 153 163 155 134 131 135 141 165 186 193 219 239 246 244 235 222 217 240 245 250 251 218 215 230 256 244 252 249 244 253 279 100 86 81 2 337 338 288 355 339 3 321 272 291 120 156 160 151 127 112 116 118 132 147
315 318 319 319 320 320 319 319 319 320 320 318 316 315 315 316 319 320 319 317 318 318 319 319 324 328 336 339 332 195 182 253 254 181 149 140 138 132 134 136 153 166 190 203 206 221 246 246 228 230 241 201 227 229 247 258 210 212 237 258 273 283 272 285 276 278 6 261 199 242 275 277 289 277 353 284 284 288 130 150 139 111 94 94 101 127 140 161
314 315 318 317 318 319 317 317 317 317 318 316 313 312 312 314 315 317 316 314 315 315 315 317 321 325 328 301 299 321 245 233 211 132 140 150 160 153 164 147 177 176 186 211 232 249 246 230 245 229 213 228 248 257 258 246 252 204 236 230 244 242 273 272 292 268 241 162 146 316 246 256 236 237 250 235 269 276 149 152 134 119 110 111 127 137 150 151
313 315 314 316 317 317 316 316 315 316 316 314 312 309 310 310 313 314 314 312 310 312 312 315 316 322 320 293 269 250 260 140 121 142 157 165 157 171 204 151 171 182 186 212 236 237 246 231 223 222 250 276 275 275 296 286 240 198 217 230 241 257 263 271 271 255 211 195 184 208 232 242 256 201 266 230 241 255 270 145 122 119 126 132 142 159 172 141
314 311 313 315 316 316 316 316 315 314 313 312 310 308 307 309 311 311 311 308 307 308 311 312 309 312 298 271 254 241 266 119 152 154 167 163 162 170 199 161 175 183 203 222 229 235 245 252 239 247 230 233 320 277 259 242 287 308 311 269 275 288 296 313 317 300 336 264 194 251 272 281 289 300 232 243 239 219 245 115 124 130 137 144 154 168 161 136
314 315 314 315 315 316 316 315 314 313 311 310 309 307 307 308 309 309 305 304 304 306 309 311 313 283 262 264 242 235 257 96 172 170 162 158 182 197 202 168 173 194 198 220 229 232 238 248 260 267 228 30 272 288 282 322 312 284 314 312 290 299 289 272 262 275 286 247 187 193 310 286 240 227 243 252 259 268 179 125 126 139 148 146 156 164 153 147
310 313 316 316 315 318 316 315 313 313 310 308 307 306 306 307 307 305 303 301 302 304 304 302 304 251 275 291 233 236 253 272 264 167 145 176 189 210 223 179 179 205 213 226 239 235 234 249 328 334 327 325 295 220 314 292 269 259 257 269 330 323 296 249 239 230 231 231 206 144 252 269 250 243 241 232 221 236 203 139 141 150 155 158 162 165 149 139
309 310 313 314 316 316 316 314 314 312 309 308 307 306 306 305 304 300 296 294 299 301 297 281 264 273 240 249 268 262 238 243 259 179 166 176 194 206 218 211 184 201 222 239 257 350 327 278 307 315 343 298 296 349 333 312 303 300 276 192 210 286 261 241 225 216 219 191 210 155 236 279 256 265 261 247 231 221 180 148 148 149 159 164 160 156 161 166
311 310 312 315 315 316 317 315 313 311 309 308 307 307 306 303 298 295 293 295 296 294 302 290 225 225 192 266 253 257 250 251 236 189 170 168 204 191 222 215 201 206 220 239 311 315 283 340 21 9 276 289 285 288 289 279 279 234 323 295 299 188 260 263 225 211 211 186 166 111 219 255 261 243 263 256 236 239 135 154 152 155 163 168 151 159 167 163
310 310 313 315 316 316 317 316 312 310 308 310 309 307 303 296 291 288 288 288 297 289 271 248 206 215 324 281 260 332 329 204 222 175 186 189 196 207 207 201 199 231 245 287 291 303 309 32 315 217 264 283 277 262 278 322 306 220 175 245 248 206 251 281 245 204 199 186 161 138 189 268 281 260 236 238 212 220 151 152 152 150 156 162 174 165 153 149
310 310 312 313 315 315 317 314 312 309 311 312 312 306 299 287 280 277 281 286 289 239 207 217 156 192 186 240 340 233 204 208 220 205 180 203 197 206 184 180 201 208 228 297 209 284 310 247 114 314 271 248 224 236 249 275 290 291 189 216 221 235 259 259 268 191 184 160 144 119 159 237 254 283 293 302 223 167 146 136 149 151 157 169 174 159 159 165
309 310 311 312 314 316 316 315 312 311 313 315 315 302 292 283 276 278 289 252 219 240 222 250 284 225 268 265 285 219 191 186 205 203 198 186 219 203 171 196 147 232 165 235 243 219 157 224 136 214 255 238 242 250 185 221 211 230 224 215 261 252 245 247 298 185 153 153 142 155 178 249 254 265 291 311 101 114 144 132 150 151 161 167 171 165 172 172
308 309 311 312 315 316 317 314 313 313 315 320 312 295 277 261 260 180 287 173 139 82 351 206 156 161 106 205 219 252 199 180 183 186 192 184 216 223 179 180 160 194 185 182 223 200 149 242 168 226 250 230 228 220 194 229 240 241 219 196 224 247 275 246 221 171 161 164 145 160 194 231 264 283 290 346 329 134 160 148 152 155 166 162 163 167 176 177
311 310 312 315 316 316 318 314 312 314 322 323 333 323 319 86 124 53 211 240 240 219 258 171 205 264 304 299 200 216 216 152 177 199 178 190 180 224 224 165 182 199 190 185 180 197 137 179 204 209 223 227 229 226 239 249 246 259 275 288 246 274 280 265 101 165 147 129 177 195 217 218 288 301 291 300 57 349 308 183 144 160 162 161 165 172 178 184
309 312 312 315 315 317 315 314 310 311 320 321 316 310 236 314 350 111 188 217 220 236 250 245 208 227 246 283 315 164 135 165 201 173 208 152 198 170 205 170 171 200 221 200 200 199 172 176 231 221 215 230 238 221 234 259 268 274 296 316 308 302 286 299 206 164 114 104 244 122 85 318 310 316 309 316 355 244 210 234 153 166 165 170 169 176 182 177
310 309 312 314 316 317 317 313 312 310 315 309 281 259 287 277 252 290 210 270 228 225 236 245 232 243 249 259 262 237 152 159 207 171 197 159 182 180 181 195 177 205 203 228 237 155 194 206 226 224 222 222 237 235 221 226 250 263 265 285 331 296 316 315 139 157 112 128 201 147 103 315 302 298 305 312 288 247 237 174 185 167 167 171 176 175 162 150
310 311 314 316 318 319 319 313 308 311 304 264 221 230 252 250 287 336 333 276 277 234 223 229 233 239 258 257 260 172 179 189 185 178 172 173 150 204 156 196 198 214 187 207 214 172 205 240 218 211 227 230 235 240 228 229 233 233 285 270 246 263 347 311 304 190 186 161 143 96 126 240 239 261 264 262 255 289 272 264 193 170 177 182 182 177 170 161
313 313 315 318 320 323 318 318 308 297 233 215 236 230 246 279 297 313 354 261 296 281 220 215 208 218 240 240 213 189 210 176 200 181 153 174 183 187 217 185 210 214 215 195 213 201 211 221 196 213 227 231 237 237 242 183 255 310 121 330 324 298 279 264 267 298 296 349 126 122 123 345 261 270 292 278 268 276 276 260 296 210 189 190 183 180 168 169
312 315 317 319 325 322 324 316 303 238 231 211 237 244 245 257 273 338 46 298 236 257 219 228 192 207 227 236 221 203 162 286 256 170 158 178 173 152 226 186 210 212 227 210 206 222 240 228 185 197 215 230 236 247 230 128 27 9 279 194 245 289 291 302 310 341 17 337 271 149 335 295 266 225 240 259 287 295 266 265 256 270 236 187 182 181 187 173
313 314 318 319 323 328 319 308 255 344 304 248 237 250 213 231 252 45 19 287 288 259 125 218 147 201 194 204 211 195 145 216 225 232 161 179 185 191 176 233 180 202 214 227 213 212 240 228 216 193 204 217 218 217 181 119 149 59 263 227 218 238 268 288 291 323 336 248 289 100 189 275 318 272 265 264 267 268 323 324 265 243 17 31 22 311 196 175
312 313 316 319 323 331 341 266 356 319 284 270 279 268 18 44 9 26 304 232 330 213 160 14 164 221 206 171 186 135 180 231 192 221 173 174 194 186 206 218 168 245 217 209 224 242 216 239 245 240 186 151 65 87 245 122 134 237 253 270 246 226 228 237 247 244 232 242 285 18 140 223 319 297 293 295 282 94 69 50 17 56 47 30 38 58 158 149
310 311 314 317 318 322 277 298 316 306 252 291 319 335 343 45 8 61 101 10 272 172 140 199 230 35 231 152 162 163 225 142 177 202 189 167 209 167 229 200 206 204 236 234 196 253 198 215 232 254 211 157 185 183 166 161 166 208 211 226 256 231 216 253 241 269 263 63 292 350 14 342 262 268 278 264 274 10 31 70 57 37 43 37 24 36 44 159
308 310 313 315 315 303 274 246 275 267 262 324 312 309 16 4 71 84 226 137 211 115 24 123 311 133 228 148 179 196 229 196 204 164 165 159 201 187 198 239 267 246 218 229 219 257 221 198 203 226 154 175 155 151 158 187 199 223 243 259 285 292 285 282 102 46 357 30 308 299 153 254 285 267 337 350 59 41 7 27 61 63 52 39 39 31 47 76
307 307 310 317 319 298 289 199 227 249 295 299 302 304 328 16 334 69 69 267 195 199 201 85 165 174 196 165 186 191 234 245 212 158 163 157 201 220 276 220 231 250 268 218 236 245 268 264 215 201 174 180 164 184 205 204 233 211 202 228 255 278 281 304 83 79 28 27 228 255 276 166 276 334 29 34 2 22 336 17 26 55 56 53 32 39 59 67
307 305 308 311 293 308 320 280 248 243 272 294 280 298 349 9 151 147 139 241 208 81 110 122 141 169 173 169 183 194 221 244 202 152 164 155 181 206 238 287 275 306 255 256 236 246 251 259 226 209 12 183 146 150 192 240 225 219 167 197 35 337 20 33 346 33 172 274 269 302 292 264 241 329 320 351 35 38 60 44 31 40 47 46 36 33 49 55
305 305 299 294 276 280 259 243 43 345 322 320 309 13 10 99 29 162 207 34 257 166 181 183 179 174 177 177 194 177 199 231 217 165 173 167 164 184 189 198 181 203 288 201 261 238 250 245 209 200 118 93 100 60 319 268 260 67 48 27 103 269 58 335 28 306 234 230 238 228 234 271 1 185 266 33 22 29 36 38 32 40 43 33 31 37 51 52
303 301 297 283 274 253 246 257 300 309 309 307 323 325 107 138 197 244 260 282 227 168 183 170 169 178 179 181 209 176 195 221 168 175 165 164 153 189 181 214 189 155 190 233 251 194 263 253 240 240 125 138 103 118 289 315 222 132 161 147 123 173 168 228 244 202 255 244 222 197 58 146 194 68 2 25 19 39 48 45 44 42 39 37 36 41 43 34
307 302 292 266 260 246 251 256 268 293 309 311 282 260 288 117 246 191 250 252 274 231 266 177 162 185 174 192 205 169 186 214 159 172 160 160 180 176 195 214 236 188 204 261 193 183 229 244 263 217 228 124 138 163 174 209 180 198 171 165 172 160 157 194 193 206 211 211 238 272 92 202 130 229 294 50 46 45 43 46 44 41 40 42 38 39 42 36
305 294 270 267 247 243 236 242 252 261 285 299 266 200 145 220 294 242 233 262 267 237 233 161 173 181 180 198 198 176 180 178 172 156 172 144 194 178 182 202 222 227 214 113 266 5 206 199 232 205 221 155 176 196 189 241 295 221 198 165 135 214 167 215 203 131 97 42 8 348 117 351 138 220 8 48 42 42 46 43 39 29 31 36 36 29 23 20
300 286 246 240 215 236 206 214 220 234 243 263 209 184 222 199 201 214 213 296 269 185 248 78 31 30 34 241 317 195 182 192 166 159 170 186 170 193 188 189 205 212 184 181 192 219 261 286 187 189 203 163 178 162 208 174 183 264 164 185 205 194 181 246 309 232 103 57 251 172 70 1 45 16 28 44 37 30 34 30 31 27 31 39 37 26 13 8
307 309 286 237 226 207 174 182 182 192 215 249 218 240 243 280 247 263 7 333 320 310 299 85 211 23 189 228 210 216 189 185 165 165 167 181 191 194 200 197 189 198 221 166 284 209 135 242 222 340 227 178 186 176 180 176 195 264 305 253 213 189 186 160 218 291 141 139 256 146 157 178 186 315 334 32 34 27 29 13 13 25 27 36 30 27 15 11
315 292 271 265 252 187 162 173 178 189 208 244 243 262 285 278 284 293 24 2 349 340 337 80 335 196 222 204 226 213 143 136 160 170 211 169 313 187 205 208 183 206 202 218 176 291 237 291 285 193 263 222 167 163 196 212 184 175 215 98 71 250 212 265 223 288 100 190 227 67 110 87 85 241 353 34 40 29 32 21 19 21 30 26 24 26 22 26
291 289 304 251 206 166 156 169 184 174 206 225 254 247 233 240 251 280 74 344 285 349 28 353 339 251 283 243 283 131 153 155 156 138 86 320 80 324 7 354 205 194 215 208 202 198 110 118 306 245 205 164 138 120 244 237 218 220 296 322 187 123 178 251 202 197 124 215 87 271 69 302 319 317 26 43 53 57 47 35 31 25 35 34 21 16 19 30
289 264 262 275 180 143 153 160 173 198 223 221 213 232 264 253 230 61 61 18 352 358 350 4 350 337 331 283 320 131 141 112 116 82 97 281 135 359 21 10 10 19 1 43 359 142 225 131 201 286 306 206 209 129 204 153 141 256 190 270 326 240 199 164 180 174 150 175 166 158 51 296 331 12 39 38 38 45 66 57 53 44 31 33 28 17 17 30
229 299 279 288 120 125 132 151 192 204 216 273 267 267 280 297 36 77 63 22 329 282 190 339 340 45 307 353 5 342 66 81 110 76 59 50 57 42 12 355 353 6 21 30 51 10 35 118 183 280 353 352 239 165 189 216 103 36 248 190 239 334 333 217 267 241 170 132 203 120 170 264 337 338 37 35 24 34 45 71 68 53 41 22 13 25 30 38
284 182 258 321 113 124 136 170 237 197 244 237 226 245 270 280 257 87 297 110 237 295 190 211 305 320 338 358 18 356 53 17 27 96 18 89 53 79 343 353 358 40 56 80 291 18 135 177 92 62 210 247 291 4 186 58 75 74 62 15 25 94 78 50 15 287 40 13 71 116 116 164 333 40 72 81 68 46 51 63 68 60 53 43 28 23 35 38
199 239 284 309 156 150 157 229 218 218 234 252 264 256 240 258 4 43 350 134 236 176 311 335 321 356 11 77 18 13 31 55 46 93 123 56 55 27 360 20 17 36 66 10 356 350 347 54 26 338 338 325 343 13 32 34 37 63 41 31 35 39 5 160 162 217 114 313 65 5 67 155 213 81 76 100 69 54 49 43 55 56 53 42 33 34 44 43
357 271 325 292 185 180 195 219 217 223 238 260 260 295 349 353 304 43 349 0 252 122 336 334 302 82 299 23 19 12 73 45 72 92 63 37 47 360 37 61 45 22 47 321 76 308 48 321 106 42 5 346 347 352 3 7 44 47 46 6 15 34 22 351 74 26 80 326 198 115 139 207 129 77 84 65 53 45 37 37 35 36 35 41 36 33 36 36
311 258 159 296 240 202 232 243 299 308 276 264 272 292 307 284 2 10 24 305 118 68 34 358 348 13 14 47 356 339 316 146 116 71 97 52 94 355 67 54 44 65 49 146 156 230 96 295 62 86 146 173 224 75 338 337 337 318 38 16 16 14 353 31 49 5 81 328 31 89 95 131 112 86 65 52 46 46 33 27 27 32 29 38 40 36 34 31
133 92 267 241 250 197 276 288 291 286 318 299 346 297 308 282 97 359 13 302 27 14 70 344 340 4 344 24 355 5 325 19 100 169 114 104 109 46 78 77 78 53 26 21 5 66 92 62 70 126 139 159 174 193 195 129 8 15 28 23 13 17 19 65 95 75 140 162 67 344 136 125 104 71 66 63 53 47 35 25 22 17 19 30 40 43 37 32
302 250 130 206 152 250 257 283 259 229 242 229 149 247 236 285 71 45 57 322 37 359 5 340 294 97 131 63 33 1 347 356 352 308 113 116 39 24 348 131 103 104 80 53 344 42 59 57 4 30 120 188 163 139 109 35 56 42 56 17 27 23 28 65 75 173 178 82 75 271 139 115 83 66 56 56 54 52 44 34 24 22 19 26 32 38 36 31
157 252 310 334 334 220 261 278 225 265 265 257 268 339 255 197 73 59 329 327 6 60 75 320 281 277 228 158 136 143 352 4 40 31 72 58 64 359 29 355 70 146 92 32 357 60 104 89 307 38 51 266 128 135 135 92 60 66 59 54 46 31 34 57 37 40 110 126 164 174 94 99 86 63 60 55 53 54 48 44 37 30 28 28 31 33 31 28
5 306 262 283 309 261 183 217 218 219 211 197 143 279 276 118 152 122 269 151 275 117 59 70 313 330 320 298 123 138 166 87 9 32 61 85 99 66 34 344 22 38 90 85 309 3 84 80 205 127 259 279 45 57 90 95 74 54 47 62 63 53 48 50 51 42 71 67 77 87 82 73 66 65 55 53 50 48 48 45 41 37 31 28 33 34 33 29
242 37 320 343 246 302 312 275 241 193 189 42 75 248 268 52 305 115 63 91 339 335 105 220 205 236 316 4 93 81 79 111 140 78 349 93 73 111 127 145 261 348 73 127 172 308 96 223 182 203 196 83 67 77 83 88 82 69 39 39 47 53 53 42 47 27 50 80 81 81 86 77 59 68 65 54 48 48 47 42 39 34 31 32 35 36 33 31
308 294 273 352 321 271 218 216 176 196 85 28 57 207 186 152 228 212 141 131 97 43 322 43 23 25 355 29 48 59 64 112 113 144 210 97 146 220 120 259 155 199 21 75 32 192 137 220 192 203 105 116 102 99 103 94 86 72 43 27 34 35 42 19 49 12 44 46 92 95 68 72 92 77 70 56 52 48 46 42 40 36 33 32 37 36 34 32
322 259 221 257 282 265 276 183 156 111 105 228 180 66 1 169 178 71 28 7 63 182 289 75 60 55 349 41 55 40 17 40 37 19 342 326 12 321 133 175 182 167 174 123 165 114 128 146 125 149 88 98 145 133 141 135 73 43 15 351 25 78 97 71 48 36 21 2 59 54 83 52 70 80 76 60 58 55 52 40 38 43 38 37 36 34 33 32